Location: Bois de la Silve
(44.4667°N, 6.7833°E)
Time: 03:19:49
(UTC+00:00)

Cosmos 1674 Rocket - Pass Details

Date: 14 July 2020
Orbit: 602 x 631 km, 82.5° (Epoch: 06 August)

Event Time Altitude Azimuth Distance (km) Brightness Sun altitude
Rises 02:42:04 0° 344° (NNW) 2,883 7.5 -11.8°
Reaches altitude 10° 02:44:22 10° 338° (NNW) 1,970 6.5 -11.5°
Maximum altitude 02:48:28 42° 268° (W) 864 4.0 -11.0°
Enters shadow 02:52:18 11° 198° (SSW) 1,852 5.5 -10.5°
